Location: Newark
(41.8083°N, 72.2500°W)
Time: 11:49:17
(UTC+00:00)

Altair - Pass Details

Date: 03 December 2021
Orbit: 1501 x 1683 km, 47.2° (Epoch: 27 January)

Event Time Altitude Azimuth Distance (km) Brightness Sun altitude
Rises 21:38:29 0° 253° (WSW) 4,765 12.4 -4.1°
Reaches altitude 10° 21:41:37 10° 255° (WSW) 3,758 11.3 -4.6°
Maximum altitude 21:51:06 76° 341° (NNW) 1,572 7.6 -6.2°
Drops below altitude 10° 22:00:20 10° 68° (ENE) 3,661 8.8 -7.8°
Enters shadow 22:00:38 - 68° (ENE) 3,757 8.8 -7.9°
